Tracking 29799 objects as of 10-Oct-2024
HD Live streaming from Space Station
objects crossing your sky now

STARLINK-5940

Track STARLINK-5940 now!
10-day predictions
STARLINK-5940 is classified as:


NORAD ID: 56012
Int'l Code: 2023-042AC
Perigee: 565.1 km
Apogee: 567.1 km
Inclination: 43.0 °
Period: 95.8 minutes
Semi major axis: 6937 km
RCS: Unknown
Launch date: March 24, 2022
Source: United States (US)
Launch site: AIR FORCE EASTERN TEST RANGE (AFETR)
Your satellite tracking list
Your tracking list is empty




NASA's NSSDC Master Catalog

Two Line Element Set (TLE):
1 56012U 23042AC  24284.14585613 -.00009418  00000-0 -68213-3 0  9995
2 56012  43.0075 324.8961 0001448 279.6077  80.4602 15.02584550 85843
Source of the keplerian elements: AFSPC